TimeEDT,TemperatureF,Dew PointF,Humidity,Sea Level PressureIn,VisibilityMPH,Wind Direction,Wind SpeedMPH,Gust SpeedMPH,PrecipitationIn,Events,Conditions,WindDirDegrees,DateUTC
12:00 AM,-9999,-9999,N/A,-9999,-9999.0,North,-9999.0,-,N/A,,Unknown,0,2013-07-05 04:00:00
12:56 AM,79.0,75.9,90,30.21,10.0,SSE,3.5,-,N/A,,Mostly Cloudy,160,2013-07-05 04:56:00
1:05 AM,79.0,75.0,88,30.20,7.0,SE,4.6,-,0.01,Rain,Rain,140,2013-07-05 05:05:00
1:56 AM,78.1,75.0,90,30.20,10.0,SSE,3.5,-,0.02,,Clear,150,2013-07-05 05:56:00
2:56 AM,78.1,75.0,90,30.18,10.0,SSE,3.5,-,N/A,,Partly Cloudy,160,2013-07-05 06:56:00
3:56 AM,79.0,75.0,88,30.17,10.0,Variable,3.5,-,N/A,,Partly Cloudy,0,2013-07-05 07:56:00
4:56 AM,78.1,75.0,90,30.18,10.0,SSE,3.5,-,N/A,,Scattered Clouds,160,2013-07-05 08:56:00
5:56 AM,79.0,75.0,88,30.20,10.0,SE,3.5,-,N/A,,Scattered Clouds,140,2013-07-05 09:56:00
6:56 AM,79.0,75.0,88,30.20,10.0,Calm,Calm,-,N/A,,Partly Cloudy,0,2013-07-05 10:56:00
7:56 AM,81.0,77.0,88,30.21,10.0,SE,3.5,-,N/A,,Clear,140,2013-07-05 11:56:00
8:56 AM,81.0,75.9,85,30.22,10.0,SSE,4.6,-,N/A,,Partly Cloudy,160,2013-07-05 12:56:00
9:56 AM,82.9,75.0,77,30.22,10.0,SSE,5.8,-,N/A,,Partly Cloudy,150,2013-07-05 13:56:00
10:56 AM,84.0,73.9,72,30.22,10.0,South,5.8,-,N/A,,Mostly Cloudy,170,2013-07-05 14:56:00
11:56 AM,87.1,75.9,69,30.22,10.0,SE,6.9,-,N/A,,Mostly Cloudy,130,2013-07-05 15:56:00
12:38 PM,84.9,75.9,74,30.21,10.0,SE,6.9,-,0.00,Rain,Light Rain,140,2013-07-05 16:38:00
12:46 PM,87.1,75.9,69,30.21,10.0,SSE,6.9,21.9,0.00,,Mostly Cloudy,150,2013-07-05 16:46:00
12:56 PM,89.1,77.0,67,30.22,10.0,SSE,5.8,-,0.00,,Scattered Clouds,160,2013-07-05 16:56:00
1:56 PM,87.1,73.9,65,30.21,10.0,SE,5.8,17.3,N/A,,Mostly Cloudy,140,2013-07-05 17:56:00
2:29 PM,86.0,75.0,70,30.20,8.0,South,11.5,19.6,N/A,,Mostly Cloudy,180,2013-07-05 18:29:00
2:40 PM,84.0,78.1,82,30.19,5.0,SSE,10.4,17.3,0.03,Rain,Light Rain,160,2013-07-05 18:40:00
2:56 PM,84.9,77.0,77,30.19,10.0,SSE,9.2,-,0.03,,Mostly Cloudy,160,2013-07-05 18:56:00
3:56 PM,82.9,75.0,77,30.18,10.0,South,12.7,20.7,0.00,,Mostly Cloudy,180,2013-07-05 19:56:00
4:17 PM,81.0,75.9,85,30.17,10.0,SSE,5.8,-,0.02,,Scattered Clouds,160,2013-07-05 20:17:00
4:56 PM,84.9,75.0,72,30.16,10.0,SSE,9.2,18.4,0.02,,Mostly Cloudy,160,2013-07-05 20:56:00
5:24 PM,81.0,75.0,82,30.16,1.8,SSE,8.1,21.9,0.02,Rain,Heavy Rain,160,2013-07-05 21:24:00
5:28 PM,79.0,75.0,88,30.17,1.2,SSE,19.6,31.1,0.05,Rain,Light Rain,150,2013-07-05 21:28:00
5:30 PM,79.0,75.0,88,30.17,0.5,SSE,23.0,31.1,0.16,Fog-Rain,Light Rain,150,2013-07-05 21:30:00
5:35 PM,77.0,75.0,94,30.17,0.2,SSE,11.5,31.1,0.25,Fog-Rain,Heavy Rain,150,2013-07-05 21:35:00
5:41 PM,77.0,75.0,94,30.17,0.8,SSE,10.4,20.7,0.25,Rain,Light Rain,150,2013-07-05 21:41:00
5:43 PM,77.0,75.0,94,30.17,2.0,SSE,10.4,20.7,0.25,Rain,Light Rain,150,2013-07-05 21:43:00
5:56 PM,78.1,73.9,87,30.17,10.0,SSE,4.6,-,0.26,Rain,Light Rain,150,2013-07-05 21:56:00
6:56 PM,80.1,75.9,87,30.17,10.0,SSE,8.1,-,0.00,,Scattered Clouds,160,2013-07-05 22:56:00
7:56 PM,81.0,75.0,82,30.18,10.0,SSE,8.1,-,N/A,,Scattered Clouds,160,2013-07-05 23:56:00
8:56 PM,81.0,73.9,79,30.19,10.0,SSE,5.8,-,N/A,,Clear,160,2013-07-06 00:56:00
9:56 PM,81.0,75.0,82,30.20,10.0,SSE,4.6,-,N/A,,Clear,160,2013-07-06 01:56:00
10:56 PM,79.0,73.9,84,30.22,10.0,SE,4.6,-,N/A,,Clear,130,2013-07-06 02:56:00
11:56 PM,79.0,73.9,84,30.21,10.0,SE,4.6,-,N/A,,Clear,130,2013-07-06 03:56:00